www.pogodaiklimat.ru

Погода и климат >> Архив погоды >> Россия >> Магаданская область >> Мыс Братьев


ПОГОДА на Мысе Братьев

  • Прогноз погоды на Мысе Братьев
  • Монитор погоды на Мысе Братьев
  • Климат города

АРХИВ ПОГОДЫ на Мысе Братьев

Время (UTC), дата Ветер
(напр.,м/с)
 
Видим.   Явления Облачность Т
(С)
Тd
(С)
f
(%)
Тe
(С)
Тes
(С)
Комфортность P
(гПа)
Po
(гПа)
Тmin
(С)
Tmax
(С)
R
(мм)
R24
(мм)
S
(см)
12 15.11 СВ 13-17
{21}
10 км слабый ливневой снег 10/10 600 м
[Cb cap]
-2.9 -4.4 89 -13 -13 1000.1 998.4
15 15.11 СВ 13-19
{22}
10 км слабый ливневой снег 10/10 600 м
[Cb cap]
-3.2 -4.4 91 -13 -13 1000.1 998.4
18 15.11 СВ 12-17
{20}
50 км в посл. час ливневой снег 6/6 600 м
[Cb cap]
-1.6 -3.4 88 -11 -11 1000.0 998.3
21 15.11 В 13-17
{20}
4000 м ливневой снег {метель} 10/10 600 м
[Cb cap]
-1.8 -2.4 96 -12 -12 999.6 997.9 -5.5 1 23
00 16.11 Ю 6
{17}
10 км слабый ливневой снег 8/8 600 м
[Cb cap]
-0.5 -1.6 92 -7 -7 1001.2 999.6
03 16.11 Ю 11-17
{17}
10 км слабый ливневой снег 10/10 600 м
[Cb cap]
+0.9 -0.8 88 -7 -7 1000.9 999.3
06 16.11 ЮЗ 12-17
{23}
2000 м метель {ливн. осадки} 10/10 600 м
[Cb cap]
-2.0 -3.8 87 -12 -12 1008.1 1006.4
09 16.11 ЮЗ 10-14
{20}
20 км позёмок {метель} 8/8 600 м
[Cb cap]
-2.3 -6.5 73 -11 -11 1013.1 1011.5 +1.5 3
12 16.11 З 6
{14}
50 км {метель} 6/6 600 м
[Cb cap]
-3.0 -5.3 84 -10 -10 1016.6 1014.9
15 16.11 ЮЗ 3 10 км слабый ливневой снег 6/6 600 м
[Cb cap]
-2.6 -4.1 89 -8 -8 1016.6 1014.9
18 16.11 СЗ 5 50 км {ливн. осадки} 5/5 600 м
[Cb cap]
-5.8 -7.1 91 -13 -13 1016.1 1014.4
21 16.11 С 4 50 км 8/8 600 м
[Cb cap]
-4.0 -6.1 85 -10 -10 1014.7 1013.0 -6.4 1 23
00 17.11 СВ 7 10 км слабый ливневой снег 10/10 600 м
[Cb cap]
-2.8 -5.2 84 -11 -11 1013.0 1011.3
03 17.11 С 7-10
{12}
10 км осадки на расстоянии {ливн. осадки} 9/9 600 м
[Cb cap]
-0.8 -4.0 79 -8 -8 1009.2 1007.5
06 17.11 С 8-11
{15}
10 км осадки на расстоянии {ливн. осадки} 9/9 600 м
[Cb cap]
-1.4 -4.9 77 -9 -9 1006.9 1005.2
09 17.11 С 8-10
{14}
10 км осадки на расстоянии 10/10 600 м
[Cb cap]
-2.5 -6.1 76 -11 -11 1004.7 1003.1 -0.3 0.3
12 17.11 СВ 7
{11}
10 км осадки на расстоянии 10/10 600 м
[Cb cap]
-2.4 -5.7 78 -10 -10 1002.4 1000.8
15 17.11 СВ 1 50 км 10/10 600 м
[Cb cap]
-2.8 -5.3 83 -5 -5 1001.3 999.7
18 17.11 С 3 50 км 8/8 600 м
[Cb cap]
-3.0 -7.1 73 -8 -8 1000.9 999.3
21 17.11 С 7 50 км 6/4 600 м
[Cb cap Ac As]
-3.3 -7.7 72 -11 -11 1002.6 1000.9 -5.6 23
00 18.11 С 5 50 км 6/4 600 м
[Cb cap Ac trans]
-2.9 -5.4 83 -10 -10 1003.7 1002.1
03 18.11 С 6
{10}
50 км 8/8 600 м
[Cb cap]
-4.0 -6.5 83 -12 -12 1005.5 1003.8
06 18.11 С 7-11
{13}
4000 м слабый ливневой снег 10/10 600 м
[Cb cap]
-4.2 -9.3 68 -12 -12 1007.7 1006.0
09 18.11 С 6
{11}
50 км в посл. час ливневой снег 10/10 600 м
[Cb cap]
-7.0 -12.7 64 -15 -15 1009.5 1007.9 -2.8 1
12 18.11 С 4 4000 м снег 10/0
[As trans]
-5.4 -6.5 92 -12 -12 1012.3 1010.6
15 18.11 С 6
{12}
4000 м ливневой снег 10/10 600 м
[Cb cap]
-4.4 -7.9 77 -12 -12 1014.0 1012.4
18 18.11 С 3
{10}
50 км {снег} 4/0
[Ci fib]
-6.6 -11.6 68 -12 -12 1014.6 1012.9
21 18.11 С 6 50 км 6/4 600 м
[Cb cap Ci fib]
-7.0 -11.4 71 -15 -15 1014.1 1012.4 -9.0 3 24
00 19.11 С 10-13
{13}
10 км слабый ливневой снег 10/10 600 м
[Cb cap]
-4.6 -6.3 88 -14 -14 1011.3 1009.7
03 19.11 С 14-19
{20}
2000 м ливневой снег {метель} 10/10 600 м
[Cb cap]
-3.7 -4.6 93 -14 -14 1006.7 1005.0
06 19.11 С 13-17
{20}
200 м сильная метель {ливн. осадки} ?/? -0.9 -1.5 96 -10 -10 1002.2 1000.6
09 19.11 С 13-16
{19}
200 м сильная метель ?/? +0.9 +0.5 97 -8 -8 998.7 997.1 +1.0 4
12 19.11 С 11-14
{16}
200 м сильная метель ?/? +1.1 +0.6 96 -7 -7 995.5 993.9
15 19.11 С 13-16
{18}
4000 м ливневой дождь {метель} 10/10 600 м
[Cb cap]
+2.1 +1.5 96 -6 -6 991.1 989.5
18 19.11 С 11-14
{18}
50 км ливневой дождь 10/10 600 м
[Cb cap]
+2.0 +0.9 92 -6 -6 986.9 985.3
21 19.11 С 13-18
{18}
10 км слабый ливневой дождь 10/10 600 м
[Cb cap]
+3.8 +2.1 89 -4 -4 983.0 981.5 +0.9 4 20
00 20.11 С 9-13
{21}
10 км слабый ливневой дождь 10/10 600 м
[Cb cap]
+1.8 -2.0 76 -5 -5 986.6 985.0 +0.9
03 20.11 С 10-15
{20}
1000 м осадки на расстоянии {ливн. осадки} 9/9 600 м
[Cb cap]
-0.5 -3.0 83 -9 -9 989.0 987.4
06 20.11 С 10-19
{21}
10 км слабый ливневой снег 10/10 600 м
[Cb cap]
-3.3 -5.1 87 -13 -13 993.6 991.9
09 20.11 С 11-18
{20}
4000 м слабый ливневой снег 10/10 600 м
[Cb cap]
-3.6 -4.9 91 -13 -13 995.1 993.5 +4.3 2
12 20.11 С 8-15
{18}
2000 м слабый ливневой снег {метель} 10/10 600 м
[Cb cap]
-4.1 -5.8 88 -13 -13 996.5 994.9
15 20.11 С 8-13
{16}
н/о н/о -3.5 -11.5 54 -11 -11 996.9 995.3
18 20.11 С 8-12
{15}
4000 м ливневой снег 10/10 600 м
[Cb cap]
-5.6 -7.5 86 -15 -15 998.0 996.3
21 20.11 С 5
{15}
10 км слабый ливневой снег 10/10 600 м
[Cb cap]
-5.7 -7.1 90 -13 -13 999.0 997.3 -6.2 1 21
00 21.11 С 11-17
{18}
50 км сильный позёмок {ливн. осадки, метель} 9/9 600 м
[Cb cap]
-5.4 -8.7 78 -15 -15 999.9 998.2
03 21.11 З 7-11
{18}
50 км в посл. час ливневой снег {метель} 10/8 600 м
[Cb cap Ac trans]
-5.4 -8.3 80 -14 -14 1000.2 998.6
06 21.11 С 4 10 км слабый снег 10/0
[As trans]
-6.6 -8.0 90 -13 -13 998.7 997.1
09 21.11 С 9-11
{20}
10 км слабый ливневой снег 10/10 600 м
[Cb cap]
-7.0 -7.9 93 -17 -17 997.2 995.6 -5.0 2
12 21.11 С 10-16
{18}
10 км слабый ливневой снег 10/10 600 м
[Cb cap]
-5.7 -9.2 76 -15 -15 997.6 996.0
15 21.11 З 10-16
{19}
50 км в посл. час ливневой снег 10/10 600 м
[Cb cap]
-5.7 -8.1 83 -15 -15 997.3 995.7
18 21.11 С 4
{16}
50 км {ливн. осадки} 8/8 600 м
[Cb cap]
-8.1 -11.1 79 -15 -15 998.2 996.6
21 21.11 С 5
{14}
10 км слабый снег 10/10 1000 м
[Sc]
-8.7 -10.4 87 -16 -16 999.6 998.0 -9.2 1 21
00 22.11 С 4 50 км {снег} 10/10 600 м
[Cb cap]
-9.8 -11.0 91 -17 -17 1000.8 999.2 -10.7
03 22.11 С 4 10 км слабый снег 8/8 1000 м
[Sc]
-8.9 -11.0 85 -16 -16 1001.3 999.6
06 22.11 С 5 2000 м ливневой снег 10/10 600 м
[Cb cap]
-7.8 -9.3 89 -15 -15 1002.5 1000.9

 

Местоположение метеостанции Мыс Братьев (Магаданская область, Россия): широта 59.10 долгота 153.30 высота над уровнем моря 13 м.

В архиве по умолчанию представлена погода на Мысе Братьев за последнюю неделю. Архивные данные за месяц целиком и за предыдущие месяцы, начиная с января 2011 года, Вы можете получить, выбрав интересующий диапазон дат из раскрывающегося списка и нажав кнопку "Ввод!".

Внимание! Время в таблицах - всемирное. Для получения местного времени необходимо прибавить поправку, которая на Мысе Братьев равна 11 ч.

Смотрите также архив погоды в соседних городах и на ближайших метеорологических станциях:

Погода в Брохово (Магаданская область, Россия) (80 км)
Погода на Мысе Алевина (Магаданская область, Россия) (119 км)
Погода в Оле (Магаданская область, Россия) (130 км)
Погода в Нагаева (Магаданская область, Россия) (154 км)
Погода в Магадане (Магаданская область, Россия) (156 км)
Погода в Палатке (Магаданская область, Россия) (175 км)
Погода в Армани (Магаданская область, Россия) (192 км)
Погода в Мадауне (Магаданская область, Россия) (221 км)
Погода в Шелихова (Магаданская область, Россия) (228 км)
Погода в Талае (Магаданская область, Россия) (232 км)

Пояснения к столбцам:

Ветер - указаны скорость ветра в м/с - средняя за 10 мин, порывы в срок и между сроками (в фигурных скобках) и направление, откуда дует ветер: С - северный, СВ - северо-восточный, В - восточный, ЮВ - юго-восточный, Ю - южный, ЮЗ - юго-западный, З - западный, СЗ - северо-западный.
Видимость - горизонтальная дальность видимости в метрах или километрах. При видимости от 1 до 10 км при отсутствии осадков обычно наблюдается дымка, при ухудшении видимости до 1 км и менее - туман. В сухую погоду видимость может ухудшаться дымом, пылью или мглою.
Явления - указаны атмосферные явления, наблюдавшиеся в срок или в последний час перед сроком; фигурными скобками обозначены явления, наблюдавшиеся между сроками (за 1-3 часа до срока); квадратными скобками обозначены град или гололедные отложения с указанием их диаметра в мм.
Облачность - указаны через наклонную черту общая и нижняя облачность в баллах и высота нижней границы облаков в метрах; квадратными скобками обозначены формы облаков: Ci - перистые, Cs - перисто-слоистые, Cc - перисто-кучевые, Ac - высококучевые, As - высокослоистые, Sc - слоисто-кучевые, Ns - слоисто-дождевые, Cu - кучевые, Cb - кучево-дождевые. Подробнее классификацию облаков см. в Атласе облаков (PDF).
T - Температура воздуха - температура, измеренная на высоте 2 м над землей.
Td - Температура точки росы - температура, при понижении до которой содержащийся в воздухе водяной пар достигнет насыщения.
f - Относительная влажность воздуха - влажноcть воздуха, измеренная на высоте 2 м над землей.
Te - Эффективная температура - температура, которую ощущает одетый по сезону человек в тени. Характеристика душности погоды. При расчете учитывается влияние влажности воздуха и скорости ветра на теплоощущения человека.
Tes - Эффективная температура на солнце - температура, которую ощущает человек, с поправкой на солнечный нагрев. Характеристика знойности погоды. Зависит от высоты солнца над горизонтом, облачности и скорости ветра. Ночью, в пасмурную погоду, а также при ветре 12 м/с и более поправка равна нулю.
P - Атмосферное давление - приведенное к уровню моря атмосферное давление.
Po - Атмосферное давление - измеренное на уровне метеостанции атмосферное давление.
Tmin - Минимальная температура - минимум температуры воздуха на высоте 2 м над землей.
Tmax - Максимальная температура - максимум температуры воздуха на высоте 2 м над землей.
R - Количество осадков - Количество выпавших осадков за период времени, мм. При наведении курсора мыши на число - период времени, за который выпало указанное количество осадков.
R24 - Количество осадков - Количество выпавших осадков за 24 часа, мм.
S - Снежный покров - Высота снежного покрова, см. При наведении курсора мыши на число - состояние снежного покрова и степень покрытия местности в баллах.